Home   Weather   Rygge   Past weeks
Flag for Norway

Past Weather in Rygge, Norway — Yesterday and Last 2 Weeks

Now
46 °F

Low clouds.


Feels Like: 44 °F
Forecast: 51 / 44 °F
Wind: 5 mph from Northeast

Location: Rygge

Current Time: Oct 17, 2019 at 1:17:34 pm

Latest Report: Oct 17, 2019 at 12:00 pm


Visibility: 31 mi

Pressure: 29.80 "Hg

Humidity: 90%

Dew Point: 43 °F

Location of RyggeLocation

Past Weather in Rygge — Graph

°F

Rygge Temperature Yesterday

Maximum temperature yesterday: 45 °F (at 11:00 pm)
Minimum temperature yesterday: 42 °F (at 4:00 am)
Average temperature yesterday: 43 °F

High & Low Weather Summary for the Past Weeks

 TemperatureHumidityPressure
High56 °F (Oct 12, 4:00 pm)98% (Oct 14, 10:00 pm)30.34 "Hg (Oct 14, 10:00 pm)
Low26 °F (Oct 7, 6:00 am)44% (Oct 5, 5:00 pm)29.23 "Hg (Oct 12, 2:00 am)
Average42 °F86%29.79 "Hg
* Reported Oct 2 11:00 am — Oct 17 11:00 am, Rygge. Weather by CustomWeather, © 2019

Note: Actual official high and low records may vary slightly from our data, if they occured in-between our weather recording intervals... More about our weather records

Advertising

Rygge Weather History for the Previous 24 Hours

Scroll right to see more
 ConditionsComfort  
Time TempWeatherWind HumidityBarometerVisibility
11:00 am
Thu, Oct 17
46 °FLow clouds.5 mph89%29.80 "Hg31 mi
10:00 am45 °FLow clouds.3 mph92%29.81 "Hg31 mi
9:00 am44 °FLow clouds.3 mph94%29.80 "Hg31 mi
8:00 am43 °FLow clouds.3 mph96%29.79 "Hg31 mi
7:00 am43 °FLow clouds.2 mph95%29.78 "Hg31 mi
6:00 am44 °FOvercast.3 mph96%29.78 "Hg31 mi
5:00 am44 °FLow clouds.3 mph96%29.78 "Hg19 mi
4:00 am45 °FLow clouds.3 mph96%29.78 "Hg6 mi
3:00 am45 °FOvercast.3 mph96%29.78 "Hg31 mi
2:00 am45 °FOvercast.3 mph96%29.78 "Hg31 mi
1:00 am45 °FDrizzle. Low clouds.3 mph96%29.77 "Hg22 mi
12:00 am45 °FDrizzle. Low clouds.3 mph97%29.76 "Hg17 mi
11:00 pm
Wed, Oct 16
45 °FDrizzle. Overcast.3 mph97%29.76 "Hg14 mi
10:00 pm45 °FDrizzle. Low clouds.3 mph96%29.76 "Hg7 mi
9:00 pm45 °FLight rain. Overcast.3 mph96%29.75 "Hg9 mi
8:00 pm44 °FLight rain. Overcast.3 mph96%29.75 "Hg14 mi
7:00 pm44 °FLight rain. Light fog.5 mph96%29.76 "Hg6 mi
6:00 pm44 °FRain. Low clouds.3 mph96%29.76 "Hg8 mi
5:00 pm44 °FLight rain. Low clouds.5 mph96%29.75 "Hg11 mi
4:00 pm44 °FDrizzle. Overcast.5 mph96%29.76 "Hg22 mi
3:00 pm44 °FLight rain. Overcast.5 mph96%29.76 "Hg9 mi
2:00 pm44 °FRain. Low clouds.5 mph96%29.76 "Hg11 mi
1:00 pm44 °FLight rain. Overcast.5 mph95%29.76 "Hg13 mi
Weather by CustomWeather, © 2019

See weather overview